Location: Demre
(36.2444°N, 29.9850°E)
Time: 06:00:10
(UTC+00:00)

Okean 1-7 Rocket - Pass Details

Date: 11 March 2026
Orbit: 609 x 643 km, 82.5° (Epoch: 21 April)

Event Time Altitude Azimuth Distance (km) Brightness Sun altitude
Rises 16:24:33 0° 169° (S) 2,929 6.9 -5.0°
Reaches altitude 10° 16:26:52 10° 163° (SSE) 2,027 6.0 -5.5°
Maximum altitude 16:31:07 43° 92° (E) 906 4.0 -6.3°
Drops below altitude 10° 16:35:25 10° 21° (NNE) 2,045 6.0 -7.2°
Sets 16:37:45 0° 15° (NNE) 2,958 6.9 -7.7°
